Notices

What's New in latest Release from April 7th, 2021:

- Updated Glossary, including Speed of Maximum Gust, and Total Hourly Precipitation

- Updated national and regional climate services offices contacts and prices information

- Addition of station inventory lists for 1981-2010, 1971-2000, and 1961-1990 Normals.

If you haven't already, please take our survey and provide feedback about our website: https://eccc.sondage-survey.ca/f/LanguageSelection.aspx?s=442ca660-fcf1-47c0-95a9-59707d6fd709

Hourly Data Report for November 16, 2020

VICTORIA UNIVERSITY CS
BRITISH COLUMBIA
Current Station Operator: ECCC - MSC

48°27'25.200" N
123°18'16.600" W
60.10 m
1018598
71783
WYJ

Download Data

Hourly Data (November 2020)
Hourly Data Report for November 16, 2020
TIME
LST
Temp Definition
°C
Dew Point Definition
°C
Rel Hum Definition
%
Precip. Amount Definition
mm

Wind Dir Definition
10's deg

Wind Spd Definition
km/h
Visibility Definition
km
Stn Press Definition
kPa
Hmdx Definition


Wind Chill Definition


Weather Definition


00:00 7.2 7.1 100 0.0   0   101.30     LegendNANA
01:00 6.9 6.9 100 0.0 0 1   101.26     LegendNANA
02:00 7.0 6.8 99 0.0 11 2   101.23     LegendNANA
03:00 6.6 6.6 100 0.0 0 1   101.22     LegendNANA
04:00 6.6 6.6 100 0.2 2 1   101.16     LegendNANA
05:00 7.4 7.3 100 0.0 7 2   101.13     LegendNANA
06:00 7.4 7.3 99 0.0 2 5   101.09     LegendNANA
07:00 7.5 7.2 98 0.0 5 2   101.07     LegendNANA
08:00 7.5 6.9 96 0.0 4 3   100.97     LegendNANA
09:00 7.5 6.7 95 0.0 1 7   100.97     LegendNANA
10:00 7.4 6.9 97 0.2 36 5   100.92     LegendNANA
11:00 7.4 7.1 98 0.3 5 3   100.79     LegendNANA
12:00 7.0 7.0 100 1.6 8 5   100.60     LegendNANA
13:00 6.9 6.9 100 3.6 6 4   100.45     LegendNANA
14:00 7.0 7.0 100 3.7 2 12   100.30     LegendNANA
15:00 6.4 6.3 99 3.9 3 12   100.14     LegendNANA
16:00 6.3 6.3 100 3.7 2 11   100.04     LegendNANA
17:00 6.3 6.3 100 3.0 2 10   99.88     LegendNANA
18:00 6.4 6.3 100 0.7 2 10   99.76     LegendNANA
19:00 6.6 6.5 100 0.7 2 11   99.66     LegendNANA
20:00 6.8 6.8 100 0.5 1 10   99.56     LegendNANA
21:00 7.0 6.9 100 0.0 35 13   99.50     LegendNANA
22:00 7.7 7.6 100 0.0 36 12   99.46     LegendNANA
23:00 7.4 7.3 99 0.0 36 15   99.32     LegendNANA

Notes on Data Quality.

Legend

  • E = Estimated
  • M = Missing
  • NA = Not Available*
  • [empty] = Indicates an unobserved value
Date modified: